Weather History for Loreto, Mexico

Change the Weather History Date:

Sunday, November 11, 2012

  Actual Average Record
Temperature  
Mean Temperature 70 °F -  
Max Temperature 77 °F 80 °F 86 °F (2002)
Min Temperature 65 °F 70 °F 64 °F (2000)
Cooling Degree Days 6    
Growing Degree Days 20 (Base 50)    
Moisture  
Dew Point 56 °F    
Average Humidity 55    
Maximum Humidity 78    
Minimum Humidity 29    
Precipitation  
Precipitation 0.00 in - - ()
Sea Level Pressure  
Sea Level Pressure 30.04 in    
Wind  
Wind Speed 10 mph ()    
Max Wind Speed 23 mph    
Max Gust Speed -    
Visibility 9.5 miles    
Events      
Averages and records for this station are not official NWS values.
T = Trace of Precipitation, MM = Missing Value Source: Averaged Metar Reports

Daily Weather History Graph

Daily Weather History Graph

Search for Another Location

Airport:

Trip Planner

Search our weather history database for the weather conditions in past years. The results will help you decide how hot, cold, wet, or windy it might be!

Date:

Astronomy

Nov. 11, 2012 Rise Set
Actual Time 6:41 AM MST 5:37 PM MST
Civil Twilight 6:16 AM MST 6:01 PM MST
Nautical Twilight 5:49 AM MST 6:29 PM MST
Astronomical Twilight 5:21 AM MST 6:56 PM MST
Moon 4:11 AM MST (11/11) 3:54 PM MST (11/11)
Length of Visible Light 11h 44m
Length of Day
10h 56m
Waning Crescent, 7% of the Moon is Illuminated
Nov 11
Waning Crescent
Nov 13
New
Nov 20
First Quarter
Nov 28
Full
Dec 6
Last Quarter

Hourly Weather History & Observations

Time (MST) Temp. Dew Point Humidity Pressure Visibility Wind Dir Wind Speed Gust Speed Precip Events Conditions
1:45 AM 65 °F 52 °F 54% 30.00 in 12 mi NNW 2.2 mph - -  
4:50 AM 67 °F 46 °F 36% 30.00 in 12 mi NNW 6.7 mph - -  
7:09 AM 66.2 °F 59.0 °F 78% 30.05 in 8.0 mi West 9.2 mph - N/A   Partly Cloudy
7:42 AM 68.0 °F 59.0 °F 73% 30.05 in 8.0 mi West 9.2 mph - N/A   Partly Cloudy
7:45 AM 67 °F 50 °F 43% 30.04 in 12 mi NNW 8.9 mph - -  
8:41 AM 69.8 °F 59.0 °F 68% 30.07 in 8.0 mi West 13.8 mph - N/A   Scattered Clouds
9:40 AM 71.6 °F 59.0 °F 64% 30.08 in 8.0 mi WNW 13.8 mph - N/A   Scattered Clouds
10:44 AM 73.4 °F 57.2 °F 57% 30.07 in 8.0 mi WNW 23.0 mph - N/A   Scattered Clouds
10:45 AM 75 °F 53 °F 36% 30.07 in 12 mi NNW 11.2 mph - -   Scattered Clouds
11:40 AM 73.4 °F 59.0 °F 61% 30.05 in 8.0 mi North 23.0 mph - N/A   Scattered Clouds
12:43 PM 73.4 °F 59.0 °F 61% 30.04 in 8.0 mi North 23.0 mph - N/A   Scattered Clouds
1:45 PM 77 °F 53 °F 32% 30.02 in 12 mi NNW 13.4 mph - -  
1:48 PM 75.2 °F 60.8 °F 61% 30.00 in 8.0 mi North 23.0 mph - N/A   Partly Cloudy
2:42 PM 75.2 °F 60.8 °F 61% 30.00 in 8.0 mi North 23.0 mph - N/A   Partly Cloudy
3:50 PM 75.2 °F 60.8 °F 61% 30.03 in 8.0 mi North 11.5 mph - N/A   Scattered Clouds
4:41 PM 73.4 °F 66.2 °F 78% 30.01 in 8.0 mi North 20.7 mph - N/A   Mostly Cloudy
4:45 PM 74 °F 49 °F 30% 30.01 in 12 mi NNW 8.9 mph - -   Partly Cloudy
5:43 PM 69.8 °F 57.2 °F 64% 30.02 in 8.0 mi North 17.3 mph - N/A   Partly Cloudy
6:44 PM 69.8 °F 60.8 °F 73% 30.05 in 8.0 mi North 11.5 mph - N/A   Partly Cloudy
7:45 PM 66 °F 41 °F 29% 30.05 in 12 mi NW 4.5 mph - -  
10:45 PM 65 °F 46 °F 38% 30.06 in 12 mi NNW 2.2 mph - -